CW9676 Weather Reports


time (UTC)temp
F
wind
direction
speed
knots
gust
knots
rain 1hr
in
rain 24hr
in
rain mn
in
humidity
%
barometer
mb
20260509043633 68 213 6.1 12.2 0.00 0.00 0.00 20 1005.6
20260509041456 68 4 6.1 12.2 0.00 0.00 0.00 19 1005.5
20260509040455 69 211 7.8 15.6 0.00 0.00 0.00 19 1005.5
20260509034400 69 203 7.0 13.0 0.00 0.00 0.00 18 1005.2
20260509033411 69 200 7.0 13.0 0.00 0.00 0.00 18 1004.9
20260509032432 70 225 7.0 13.0 0.00 0.00 0.00 18 1004.9
20260509031430 70 195 7.0 13.0 0.00 0.00 0.00 18 1004.6
20260509030358 70 212 6.1 13.0 0.00 0.00 0.00 17 1004.5
20260509025353 71 166 7.0 13.0 0.00 0.00 0.00 17 1004.3
20260509024340 71 207 7.0 13.9 0.00 0.00 0.00 17 1004.0
20260509023338 71 192 6.1 13.9 0.00 0.00 0.00 17 1003.9
20260509022354 72 215 7.0 13.0 0.00 0.00 0.00 17 1003.7
20260509021325 72 196 7.8 14.8 0.00 0.00 0.00 16 1003.5
20260509020348 73 160 8.7 14.8 0.00 0.00 0.00 16 1003.6
20260509015320 74 156 7.8 14.8 0.00 0.00 0.00 15 1003.4
20260509013135 76 163 7.8 15.6 0.00 0.00 0.00 14 1003.3
20260509012119 76 175 8.7 15.6 0.00 0.00 0.00 14 1003.3
20260509004854 78 177 9.6 15.6 0.00 0.00 0.00 13 1003.3
20260509003901 79 202 7.8 15.6 0.00 0.00 0.00 12 1003.3
20260509002835 79 191 9.6 17.4 0.00 0.00 0.00 13 1003.2
20260509001823 79 4 10.4 17.4 0.00 0.00 0.00 13 1003.3
20260509000758 80 138 9.6 16.5 0.00 0.00 0.00 12 1003.3
20260508235752 80 194 9.6 19.1 0.00 0.00 0.00 12 1003.3
20260508234806 80 147 10.4 19.1 0.00 0.00 0.00 12 1003.4
20260508233822 80 154 9.6 18.2 0.00 0.00 0.00 12 1003.4
20260508232802 82 155 8.7 16.5 0.00 0.00 0.00 11 1003.4
20260508230642 81 211 7.0 18.2 0.00 0.00 0.00 11 1003.4
20260508225637 81 223 6.1 13.0 0.00 0.00 0.00 11 1003.7
20260508224613 81 223 7.8 14.8 0.00 0.00 0.00 11 1003.6
20260508222547 81 223 8.7 17.4 0.00 0.00 0.00 11 1003.7
20260508221549 82 165 8.7 17.4 0.00 0.00 0.00 11 1003.7
20260508220608 82 194 6.1 19.1 0.00 0.00 0.00 12 1003.8
20260508215540 82 249 8.7 19.1 0.00 0.00 0.00 12 1004.1
20260508214525 83 273 6.1 13.0 0.00 0.00 0.00 12 1004.2
20260508213501 81 221 7.0 15.6 0.00 0.00 0.00 13 1004.3
20260508212504 82 252 7.0 17.4 0.00 0.00 0.00 12 1004.4
20260508211522 81 230 10.4 17.4 0.00 0.00 0.00 13 1004.6
20260508210453 82 196 9.6 15.6 0.00 0.00 0.00 12 1004.5
20260508205447 81 222 9.6 15.6 0.00 0.00 0.00 13 1004.8
20260508204432 81 156 8.7 16.5 0.00 0.00 0.00 13 1004.9
20260508203400 80 186 8.7 16.5 0.00 0.00 0.00 13 1005.0
20260508202424 80 223 8.7 15.6 0.00 0.00 0.00 13 1005.1
20260508201416 81 269 10.4 21.7 0.00 0.00 0.00 13 1005.2
20260508195324 78 127 7.0 13.9 0.00 0.00 0.00 13 1005.4
20260508194338 79 182 6.1 13.9 0.00 0.00 0.00 14 1005.5
20260508193339 78 169 7.0 13.0 0.00 0.00 0.00 14 1005.6
20260508192338 79 252 6.1 16.5 0.00 0.00 0.00 13 1005.7
20260508185114 78 167 6.1 13.0 0.00 0.00 0.00 14 1005.9
20260508184044 79 252 6.1 13.0 0.00 0.00 0.00 14 1006.2
20260508183022 77 154 5.2 10.4 0.00 0.00 0.00 15 1006.2
20260508182030 77 242 3.5 10.4 0.00 0.00 0.00 15 1006.6
20260508175900 77 302 7.8 20.0 0.00 0.00 0.00 14 1007.0
20260508174913 76 259 7.0 14.8 0.00 0.00 0.00 15 1007.0
20260508173918 77 292 5.2 14.8 0.00 0.00 0.00 15 1007.2
20260508172906 76 227 7.8 15.6 0.00 0.00 0.00 15 1007.3
20260508170736 76 306 6.1 13.9 0.00 0.00 0.00 15 1007.6
20260508165719 76 322 6.1 12.2 0.00 0.00 0.00 15 1007.7
20260508164656 75 359 5.2 12.2 0.00 0.00 0.00 16 1007.8
20260508163654 74 151 3.5 12.2 0.00 0.00 0.00 16 1007.8
20260508162641 74 288 3.5 13.0 0.00 0.00 0.00 15 1007.8
20260508160548 73 327 3.5 10.4 0.00 0.00 0.00 16 1008.0
20260508155559 72 91 5.2 10.4 0.00 0.00 0.00 16 1008.0
20260508154547 71 257 7.0 13.0 0.00 0.00 0.00 15 1008.0
20260508153532 71 295 6.1 13.9 0.00 0.00 0.00 16 1007.9
20260508152529 70 217 7.0 15.6 0.00 0.00 0.00 15 1007.9
20260508151548 69 267 10.4 15.6 0.00 0.00 0.00 15 1007.9
20260508150548 69 264 5.2 14.8 0.00 0.00 0.00 14 1007.9
20260508144415 67 242 4.3 12.2 0.00 0.00 0.00 15 1008.1
20260508143427 67 192 5.2 10.4 0.00 0.00 0.00 15 1008.1
20260508141248 59 175 3.5 7.0 0.00 0.00 0.00 26 1008.0
20260508135135 56 218 4.3 8.7 0.00 0.00 0.00 28 1007.9
20260508134120 56 191 3.5 7.8 0.00 0.00 0.00 28 1007.8
20260508133136 56 4 3.5 8.7 0.00 0.00 0.00 27 1007.7
20260508125831 56 195 3.5 7.8 0.00 0.00 0.00 22 1007.4
20260508124835 56 242 4.3 7.8 0.00 0.00 0.00 22 1007.2
20260508123828 55 227 4.3 7.8 0.00 0.00 0.00 24 1007.1
20260508122846 56 223 4.3 7.8 0.00 0.00 0.00 24 1006.9
20260508121853 55 193 4.3 8.7 0.00 0.00 0.00 24 1006.9
20260508115748 56 173 5.2 9.6 0.00 0.00 0.00 25 1006.7
20260508114802 56 230 5.2 8.7 0.00 0.00 0.00 26 1006.7
20260508113745 56 198 4.3 8.7 0.00 0.00 0.00 26 1006.7
20260508112807 56 211 5.2 8.7 0.00 0.00 0.00 26 1006.6
20260508111820 55 212 4.3 7.8 0.00 0.00 0.00 26 1006.6
20260508110754 55 219 4.3 7.8 0.00 0.00 0.00 27 1006.7
20260508104636 55 227 3.5 7.8 0.00 0.00 0.00 27 1006.6
20260508103634 56 228 4.3 7.8 0.00 0.00 0.00 26 1006.6
20260508102635 56 231 4.3 7.8 0.00 0.00 0.00 26 1006.7
20260508101621 57 231 4.3 7.8 0.00 0.00 0.00 25 1006.6
20260508100604 57 226 4.3 7.0 0.00 0.00 0.00 25 1006.5
20260508095540 57 227 4.3 7.0 0.00 0.00 0.00 25 1006.4
20260508094558 58 233 3.5 5.2 0.00 0.00 0.00 23 1006.6
20260508093556 58 256 3.5 5.2 0.00 0.00 0.00 23 1006.6
20260508092555 57 254 3.5 5.2 0.00 0.00 0.00 24 1006.8
20260508091520 58 246 4.3 7.0 0.00 0.00 0.00 23 1006.8
20260508090458 58 255 4.3 7.0 0.00 0.00 0.00 23 1006.9
20260508085442 58 240 4.3 7.8 0.00 0.00 0.00 24 1007.1
20260508083256 57 248 4.3 7.0 0.00 0.00 0.00 24 1007.4
20260508082247 57 238 4.3 7.8 0.00 0.00 0.00 24 1007.6
20260508081311 57 222 4.3 7.8 0.00 0.00 0.00 24 1007.6
20260508080317 57 223 3.5 6.1 0.00 0.00 0.00 24 1008.0
20260508075254 58 216 2.6 6.1 0.00 0.00 0.00 23 1008.1
20260508074248 58 225 3.5 6.1 0.00 0.00 0.00 22 1008.1
20260508073242 58 221 3.5 5.2 0.00 0.00 0.00 22 1008.1
20260508072245 58 237 2.6 5.2 0.00 0.00 0.00 22 1008.2
20260508071306 58 221 1.7 5.2 0.00 0.00 0.00 22 1008.3
20260508065207 60 226 3.5 7.0 0.00 0.00 0.00 20 1008.4
20260508064133 61 234 4.3 7.8 0.00 0.00 0.00 20 1008.4
20260508061918 60 251 4.3 7.0 0.00 0.00 0.00 21 1008.3
20260508060900 60 231 2.6 4.3 0.00 0.00 0.00 21 1008.2
20260508055916 60 240 2.6 4.3 0.00 0.00 0.00 21 1008.3
20260508054843 60 244 2.6 7.0 0.00 0.00 0.00 21 1008.3
20260508053835 61 230 3.5 7.0 0.00 0.00 0.00 21 1008.3
20260508052845 61 224 3.5 6.1 0.00 0.00 0.00 21 1008.2
20260508051819 59 231 3.5 4.3 0.00 0.00 0.00 22 1008.3
20260508050759 60 242 2.6 2.6 0.00 0.00 0.00 22 1008.2
20260508045749 60 234 2.6 4.3 0.00 0.00 0.00 22 1008.3
20260508044809 61 232 2.6 4.3 0.00 0.00 0.00 21 1008.2